Weather in Meru

Kenya     0°02′33″N   37°39′12″E
temp.,
°C
wind,
m/s
gust,
m/s
humid.,
%
clouds,
%
prec.,
mm/h
press.,
hPa
HPBL,
m
17 april, sat
sat1700:00+18w228285 0.1 101428
03:00+17wsw22845 0.1 101328
06:00+17wsw22890 0.0 101434
09:00+23sse34620 0.0 1015777
12:00+27se44505 0.0 10131723
15:00+29ese454178 0.0 10092264
18:00+22se3873100 0.8 1012328
21:00+20sw248194 1.1 101481
18 april, sun
sun1800:00+19sw267846 0.0 1015122
03:00+18ssw129056 0.2 101445
06:00+16sw129098 0.0 101638
09:00+22sse477231 0.0 1017804
12:00+26se565396 0.0 10141841
15:00+27ese564590 0.1 10111769
18:00+23sse265998 0.0 1013198
21:00+20sw2368100 0.0 101664
19 april, mon
mon1900:00+18sw118199 0.0 101631
03:00+17wsw118657 0.0 101419
06:00+16w118754 0.0 101616
09:00+22se24663 0.0 1016666
12:00+26ese44505 0.0 10141619
15:00+27ese23446 0.1 10101677
18:00+22sse367077 0.2 1012187
21:00+19wsw238399 0.7 101562
20 april, tue
tue2000:00+18wsw228899 1.1 101653
03:00+17w118980 1.3 101416
06:00+16w119192 0.0 101611
09:00+22se127441 0.0 1017561
12:00+26e325470 0.1 10131553
15:00+26e3253100 0.4 10101392
18:00+21sse2480100 1.5 1012113
21:00+19w238581 1.6 101445
21 april, wed
wed2100:00+19wsw1184100 0.1 101420
03:00+18se1188100 0.1 101328
06:00+17sw119393 0.0 101520
09:00+21se337863 0.1 1016713
12:00+25ese3363100 0.6 10141267
15:00+27ese4352100 1.5 10101740
18:00+20wsw238233 1.4 101279
21:00+19w348981 4.1 101572